Showing default

COSMOS 1603, 15333

Orbit data source: Space-Track

COSMOS 1603, 15333 is a payload satellite owned by TsNII-108 (CIS) in LEO that was launched on Fri, 28 Sep 1984 UTC via a PROTON-K/DM-2 launch vehicle from the Tyuratam Missile And Space Complex (TTMTR). Payload-class satellites include a variety of spacecraft equipped with specific instruments for various scientific and technological missions. These include communications satellites like Starlink; space stations such as the ISS; scientific satellites like the Hubble; Earth observation satellites from companies like Planet Labs, Umbra, and HawkEye 360; GPS; miniature CubeSats for education and research; and military/defense satellites.

Loading next visibility...
Identifier
15333, 1984-106A
Orbit
LEO
Country
Flag of CISCIS
Related business
Manufacturer
Yuzhnoe
Mission
Spacecraft
Bus & Motor
TSELINA-2, Unknown motor
Mass
3,250 kg wet, 3,250 kg dry
Launch date (UTC)
1984-09-28 (42 years ago)
Launch vehicle
PROTON-K/DM-2
Launch site
Tyuratam Missile And Space Complex (TTMTR)
Object type
Payload
Rocket body
Debris
Shape & HBR
Unknown
Radar Cross Section
Large (>1 m²)

Expand to show TLE details & history
Last TLE update: 8 hours ago

TLE from 8 hours ago
0 COSMOS 1603
1 15333U 84106A   26095.30431385 -.00000052  00000-0 -23282-5 0  9994
2 15333  71.0279 200.5879 0020134 346.0820  13.9745 14.14512134142436
Epoch: 2026-04-05T07:18Z
TLE epoch observation values (Epoch: 2026-04-05T07:18:12.716Z)
Latitude
-0.00002°
Longitude
-102.57675°
Altitude
832.263 km
Speed
7.444 km/s
True Right ascension
13h 22m 21s
True Declination
0° 00' 00"
Sunlit
Object was in full shadow at epoch
Visualization orbit readout
Latitude
Unknown
Longitude
Unknown
Altitude
Unknown
Speed
Unknown
Apparent Right ascension
Unknown
Apparent Declination
Unknown
Sunlit
N/A
Visualization observer readout
Local Sidereal Time
21:15:22
Azimuth
Unknown
Elevation
Unknown
Doppler factor
Unknown
Orbital elements
Apogee altitude
856.432 km
Perigee altitude
827.358 km
Semi-major axis
7,220.032 km
Eccentricity
0.00201
Inclination
71.0279°
RAAN
200.5879°
Arg. of periapsis
346.082°
True anomaly
14.03035°
Mean anomaly
13.9745°
Eccentric anomaly
14.00241°
Mean motion
3.53781 °/min
Orbital period
101.76 mins
BSTAR
-0.0000023282
Loading maneuver chart data...
Computing Atmospheric mass density...

Documentation

Showing up to 5 results
|